Regional Weather Roundup
Issued by NWS

Home | Current Version | Previous Version | Text Only | Print | Product List | Glossary On
Versions: 1 2 3 4 5 6 7 8 9 10 11 12 13 14 15 16 17 18 19 20 21 22 23 24 25 26 27 28 29 30 31 32 33 34 35 36 37 38 39 40 41 42 43 44 45 46 47 48 49 50
000
ASCA44 KEWX 251620
RWRMX

LATIN AMERICA AND CARIBBEAN REGIONAL WEATHER ROUNDUP
NATIONAL WEATHER SERVICE AUSTIN/SAN ANTONIO TX
1000 AM CST SUN FEB 25 2018

NOTE: "FAIR" INDICATED FEW OR NO CLOUDS BELOW 12,000 FEET WITH NO
SIGNIFICANT WEATHER AND/OR OBSTRUCTIONS TO VISIBILITY.

BAJA CALIFORNIA

CITY           SKY/WX    TMP DP  RH WIND       PRES   REMARKS
LORETO         SUNNY     57  43  58 W9        30.09S
LA PAZ         SUNNY     61  46  59 CALM      30.12R
MEXICALI       SUNNY     46  23  39 NW3       30.27R
S.J. DEL CABO  SUNNY     61  45  55 NW12      30.09
TIJUANA        SUNNY     48  25  40 CALM      30.21R

NORTHWESTERN MEXICO

CITY           SKY/WX    TMP DP  RH WIND       PRES   REMARKS
CULIACAN       SUNNY     63  48  59 CALM      30.02S
DURANGO        PTSUNNY   57  34  41 CALM      30.24R
GUAYMAS        SUNNY     54  36  50 CALM      30.07R
HERMOSILLO     SUNNY     52  25  35 CALM      30.15R
CD. JUAREZ     SUNNY     45   3  18 CALM      30.14R
LOS MOCHIS     SUNNY     59  43  55 NW15      30.07R
OBREGON        SUNNY     52  36  54 W5        30.05R

NORTHEASTERN MEXICO

CITY           SKY/WX    TMP DP  RH WIND       PRES   REMARKS
CHIHUAHUA      SUNNY     46  19  34 SW5       30.16R WCI  44
MATAMOROS      PTSUNNY   77  73  88 S9        29.93R
MONTERREY      PTSUNNY   73  61  64 NW16      29.95R
NUEVO LAREDO   CLOUDY    64  63  94 NW10      29.99R FOG
PIEDRAS NEGRAS PTSUNNY   63  39  42 NW10      30.04R
REYNOSA        CLOUDY    75  68  78 SE8       29.94R FOG
SALTILLO       PTSUNNY   75  54  46 CALM      30.18S
TORREON        PTSUNNY   64  23  20 NW7       30.12
CD. VICTORIA   MOSUNNY   79  66  65 SE6       29.92S

WESTERN MEXICO

CITY           SKY/WX    TMP DP  RH WIND       PRES   REMARKS
AGUASCALIENTES PTSUNNY   63  37  39 SW5       30.30S
COLIMA         MOSUNNY   77  61  57 NE8       30.09S
DEL BAJIO      MOSUNNY   66  39  37 CALM      30.34R
GUADALAJARA    PTSUNNY   68  41  37 SE3       30.22S
MANZANILLO     MOSUNNY   79  72  78 N7        29.95
MAZATLAN       MOSUNNY   63  54  72 CALM      30.02R
P. VALLARTA    PTSUNNY   70  64  83 NE3       30.00S
URUAPAN        SUNNY     68  52  56 CALM      30.20S
ZACATECAS      PTSUNNY   61  36  39 SW7       30.31

CENTRAL MEXICO

CITY           SKY/WX    TMP DP  RH WIND       PRES   REMARKS
CUERNAVACA     SUNNY     75  48  38 SE6       30.16S
MEXICO CITY    MOSUNNY   63  46  55 E3        30.37R
MORELIA        MOSUNNY   66  48  52 CALM      30.29R
POZA RICA      CLOUDY    77  72  83 N6        29.98
PUEBLA         SUNNY    N/A N/A N/A N3        30.34S
QUERETARO      PTSUNNY   63  46  55 SW7       30.34R
S. LUIS POTOSI MOSUNNY   68  30  24 W5        30.25
TAMPICO        MOSUNNY   75  73  94 CALM      29.94R
TOLUCA         SUNNY     55  45  67 CALM      30.41

SOUTHERN MEXICO

CITY           SKY/WX    TMP DP  RH WIND       PRES   REMARKS
ACAPULCO       SUNNY     81  61  50 CALM      29.95S
B. DE HUATULCO SUNNY    N/A N/A N/A CALM      30.00S
OAXACA         SUNNY     68  46  45 CALM      30.25F
P. ESCONDIDO   MOSUNNY   81  70  69 W9        30.07R
VERACRUZ       MOSUNNY   81  72  74 CALM      29.92S
ZIHUATANEJO    SUNNY     82  66  57 S2        29.95

YUCATAN PENINSULA

CITY           SKY/WX    TMP DP  RH WIND       PRES   REMARKS
CAMPECHE       MOSUNNY   82  72  69 E12G29    29.96F
CANCUN         PTSUNNY   81  70  69 E13       30.11R
CHETUMAL       MOSUNNY   82  72  69 SE12      30.06R
CD. DEL CARMEN SUNNY     79  70  73 SE18      29.98S
COZUMEL        PTSUNNY   82  72  69 SE13      30.08R
MERIDA         PTSUNNY   82  68  61 E21       30.05S
TAPACHULA      MOSUNNY   86  70  58 CALM      29.98S HX  90
TUX. GUTIERREZ SUNNY     81  61  50 E9        30.04F
VILLAHERMOSA   SUNNY     79  66  65 E12       29.97R

CENTRAL AMERICA

CITY           SKY/WX    TMP DP  RH WIND       PRES   REMARKS
BELIZE CITY    PTSUNNY   82  73  74 E8        30.05R
MANAGUA        MOSUNNY   86  66  51 E14       29.97S

CARIBBEAN

CITY           SKY/WX    TMP DP  RH WIND       PRES   REMARKS
ARUBA          MOSUNNY   84  73  70 E12       30.00S HX  91
CURACAO        MOSUNNY   82  68  61 E13       30.00F
KINGSTON       MOSUNNY   82  70  65 SE12      30.06S
NASSAU         PTSUNNY   77  70  78 E6        30.21
SAN JUAN       MOSUNNY   79  70  73 E16       30.11F
SANTO DOMINGO  PTSUNNY   81  72  74 N7        30.09F
ST. CROIX      MOSUNNY   79  70  73 NE9       30.09F
ST. KITTS      MOSUNNY   82  66  57 NE13      30.06S
ST. MAARTEN    PTSUNNY   79  66  65 E14       30.06S
ST. THOMAS     MOSUNNY   79  70  73 NE13      30.09

$$





USA.gov is the U.S. government's official web portal to all federal, state and local government web resources and services.